QPF
0.00 0.00 0.00 0.00 0.00 0.00 0.00 0.00 0.00 0.00 0.00 0.00 0.00 0.00 0.00 0.00 0.00 0.00 0.00 0.00 0.00 0.00 0.00 0.00 0.00 0.00 0.00 0.00 0.00 0.00 0.00 0.00 0.00 0.00 0.00 0.00 0.00 0.00 0.00 0.00 0.00 0.00 0.00 0.00
0.00 0.00 0.00 0.00 0.00 0.00 0.00 0.00 0.00 0.00 0.00 0.00 0.00 0.00 0.00 0.00 0.00 0.00 0.00 0.00 0.00 0.00 0.00 0.00 0.00 0.00 0.00 0.00 0.00 0.00 0.00 0.00 0.00 0.00 0.00 0.00 0.00 0.00 0.00 0.00 0.00 0.00 0.00 0.01
0.00 0.00 0.00 0.00 0.00 0.00 0.00 0.00 0.00 0.00 0.00 0.00 0.00 0.00 0.00 0.00 0.00 0.00 0.01 0.01 0.02 0.03 0.04 0.03 0.03 0.03 0.02 0.00 0.00 0.00 0.00 0.01 0.00 0.00 0.00 0.00 0.00 0.00 0.00 0.00 0.00 0.00 0.00 0.00
0.00 0.00 0.00 0.00 0.00 0.00 0.00 0.00 0.00 0.00 0.00 0.00 0.00 0.00 0.00 0.00 0.00 0.00 0.00 0.00 0.01 0.02 0.03 0.03 0.02 0.03 0.03 0.03 0.01 0.01 0.00 0.00 0.00 0.00 0.00 0.00 0.00 0.00 0.00 0.00 0.00 0.00 0.00 0.00
0.00 0.00 0.01 0.00 0.00 0.00 0.00 0.00 0.00 0.00 0.00 0.00 0.00 0.00 0.00 0.00 0.00 0.00 0.00 0.00 0.00 0.00 0.00 0.01 0.01 0.00 0.00 0.00 0.00 0.00 0.00 0.00 0.00 0.00 0.00 0.00 0.00 0.00 0.00 0.00 0.00 0.00 0.00 0.00
0.00 0.00 0.00 0.00 0.00 0.00 0.00 0.00 0.00 0.00 0.00 0.00 0.00 0.00 0.00 0.00 0.00 0.00 0.00 0.00 0.00 0.00 0.00 0.00 0.00 0.00 0.00 0.00 0.00 0.00 0.00 0.00 0.00 0.00 0.00 0.00 0.00 0.00 0.00 0.00 0.00 0.00 0.00 0.00
0.00 0.00 0.00 0.00 0.00 0.00 0.00 0.00 0.00 0.00 0.00 0.00 0.00 0.00 0.00 0.00 0.00 0.00 0.00 0.00 0.00 0.00 0.00 0.00 0.00 0.00 0.00 0.00 0.00 0.00 0.00 0.00 0.00 0.00 0.00 0.00 0.00 0.00 0.00 0.00 0.00 0.00 0.00 0.00
0.00 0.00 0.00 0.00 0.00 0.00 0.00 0.00 0.00 0.00 0.00 0.00 0.00 0.00 0.00 0.00 0.00 0.00 0.00 0.00 0.00 0.00 0.00 0.00 0.00 0.00 0.00 0.00 0.00 0.00 0.00 0.00 0.00 0.00 0.00 0.00 0.00 0.00 0.00 0.00 0.00 0.00 0.00 0.00
0.00 0.00 0.00 0.00 0.00 0.00 0.00 0.00 0.00 0.00 0.00 0.00 0.00 0.00 0.00 0.00 0.00 0.00 0.00 0.00 0.00 0.00 0.00 0.00 0.00 0.00 0.00 0.00 0.00 0.00 0.00 0.00 0.00 0.00 0.00 0.00 0.00 0.00 0.00 0.00 0.00 0.00 0.00 0.00
0.00 0.00 0.00 0.00 0.00 0.00 0.00 0.00 0.00 0.00 0.00 0.00 0.00 0.00 0.00 0.00 0.00 0.00 0.00 0.00 0.00 0.00 0.00 0.00 0.00 0.00 0.00 0.00 0.00 0.00 0.00 0.00 0.00 0.00 0.00 0.00 0.00 0.00 0.00 0.00 0.00 0.00 0.00 0.00
0.00 0.00 0.00 0.00 0.00 0.00 0.00 0.00 0.00 0.00 0.00 0.00 0.00 0.00 0.00 0.00 0.00 0.00 0.00 0.00 0.00 0.00 0.00 0.00 0.00 0.00 0.00 0.00 0.00 0.00 0.00 0.00 0.00 0.00 0.00 0.00 0.00 0.00 0.00 0.00 0.00 0.00 0.00 0.00
0.00 0.00 0.00 0.00 0.00 0.00 0.00 0.00 0.00 0.00 0.00 0.00 0.00 0.00 0.00 0.00 0.00 0.00 0.00 0.00 0.00 0.00 0.00 0.00 0.00 0.00 0.00 0.00 0.00 0.00 0.00 0.00 0.00 0.00 0.00 0.00 0.00 0.00 0.00 0.00 0.00 0.00 0.00 0.00
0.00 0.00 0.00 0.00 0.00 0.00 0.00 0.00 0.00 0.00 0.00 0.00 0.00 0.00 0.00 0.00 0.00 0.00 0.00 0.00 0.00 0.00 0.00 0.00 0.00 0.00 0.00 0.00 0.00 0.00 0.00 0.00 0.00 0.00 0.00 0.00 0.00 0.00 0.00 0.00 0.00 0.00 0.00 0.00
0.00 0.00 0.00 0.00 0.00 0.00 0.00 0.00 0.00 0.00 0.00 0.00 0.00 0.00 0.00 0.00 0.00 0.00 0.00 0.00 0.00 0.00 0.00 0.00 0.00 0.00 0.00 0.00 0.00 0.00 0.00 0.00 0.00 0.00 0.00 0.00 0.00 0.00 0.00 0.00 0.00 0.00 0.00 0.00
0.00 0.00 0.00 0.00 0.00 0.00 0.00 0.00 0.00 0.00 0.00 0.00 0.00 0.00 0.00 0.00 0.00 0.00 0.00 0.00 0.00 0.00 0.00 0.00 0.00 0.00 0.00 0.00 0.00 0.00 0.00 0.00 0.00 0.00 0.00 0.00 0.00 0.00 0.00 0.00 0.00 0.00 0.00 0.00
0.00 0.00 0.00 0.00 0.00 0.00 0.00 0.00 0.00 0.00 0.00 0.00 0.00 0.00 0.00 0.00 0.00 0.00 0.00 0.00 0.00 0.00 0.00 0.00 0.00 0.00 0.00 0.00 0.00 0.00 0.00 0.00 0.00 0.00 0.00 0.00 0.00 0.00 0.00 0.00 0.00 0.00 0.00 0.00
0.00 0.00 0.00 0.00 0.00 0.00 0.00 0.00 0.00 0.00 0.00 0.00 0.00 0.00 0.00 0.00 0.00 0.00 0.00 0.00 0.00 0.00 0.00 0.00 0.00 0.00 0.00 0.00 0.00 0.00 0.00 0.00 0.00 0.00 0.00 0.00 0.00 0.00 0.00 0.00 0.00 0.00 0.00 0.00
0.00 0.00 0.00 0.00 0.00 0.00 0.00 0.00 0.00 0.00 0.00 0.00 0.00 0.00 0.00 0.00 0.00 0.00 0.00 0.00 0.00 0.00 0.00 0.00 0.00 0.00 0.00 0.00 0.00 0.00 0.00 0.00 0.00 0.00 0.00 0.00 0.00 0.00 0.00 0.00 0.00 0.00 0.00 0.00
0.00 0.00 0.00 0.00 0.00 0.00 0.00 0.00 0.00 0.00 0.00 0.00 0.00 0.00 0.00 0.00 0.00 0.00 0.00 0.00 0.00 0.00 0.00 0.00 0.00 0.00 0.00 0.00 0.00 0.00 0.00 0.00 0.00 0.00 0.00 0.00 0.00 0.00 0.00 0.00 0.00 0.00 0.00 0.00
0.00 0.00 0.00 0.00 0.00 0.00 0.00 0.00 0.00 0.00 0.00 0.00 0.00 0.00 0.00 0.00 0.00 0.00 0.00 0.00 0.00 0.00 0.00 0.00 0.00 0.00 0.00 0.00 0.00 0.00 0.00 0.00 0.00 0.00 0.00 0.00 0.00 0.00 0.00 0.00 0.00 0.00 0.00 0.00
0.00 0.00 0.00 0.00 0.00 0.00 0.00 0.00 0.00 0.00 0.00 0.00 0.00 0.00 0.00 0.00 0.00 0.00 0.00 0.00 0.00 0.00 0.00 0.00 0.00 0.00 0.00 0.00 0.00 0.00 0.00 0.00 0.00 0.00 0.00 0.00 0.00 0.00 0.00 0.00 0.00 0.00 0.00 0.00
0.00 0.00 0.00 0.00 0.00 0.00 0.00 0.00 0.00 0.00 0.00 0.00 0.00 0.00 0.00 0.00 0.00 0.00 0.00 0.00 0.00 0.00 0.00 0.00 0.00 0.00 0.00 0.00 0.00 0.00 0.00 0.00 0.00 0.00 0.00 0.00 0.00 0.00 0.00 0.00 0.00 0.00 0.00 0.00
0.00 0.00 0.00 0.00 0.00 0.00 0.00 0.00 0.00 0.00 0.00 0.00 0.00 0.00 0.00 0.00 0.00 0.00 0.00 0.00 0.00 0.00 0.00 0.00 0.00 0.00 0.00 0.00 0.00 0.00 0.00 0.00 0.00 0.00 0.00 0.00 0.00 0.00 0.00 0.00 0.00 0.00 0.00 0.00
0.00 0.00 0.00 0.00 0.00 0.00 0.00 0.00 0.00 0.00 0.00 0.00 0.00 0.00 0.00 0.00 0.00 0.00 0.00 0.00 0.00 0.00 0.00 0.00 0.00 0.00 0.00 0.00 0.00 0.00 0.00 0.00 0.00 0.00 0.00 0.00 0.00 0.00 0.00 0.00 0.00 0.00 0.00 0.00
0.00 0.00 0.00 0.00 0.00 0.00 0.00 0.00 0.00 0.00 0.00 0.00 0.00 0.00 0.00 0.00 0.00 0.00 0.00 0.00 0.00 0.00 0.00 0.00 0.00 0.00 0.00 0.00 0.00 0.00 0.00 0.00 0.00 0.00 0.00 0.00 0.00 0.00 0.00 0.00 0.00 0.00 0.00 0.00
0.00 0.00 0.00 0.00 0.00 0.00 0.00 0.00 0.00 0.00 0.00 0.00 0.00 0.00 0.00 0.00 0.00 0.00 0.00 0.00 0.00 0.00 0.00 0.00 0.00 0.00 0.00 0.00 0.00 0.00 0.00 0.00 0.00 0.00 0.00 0.00 0.00 0.00 0.00 0.00 0.00 0.00 0.00 0.00
MSLP
1018.67 1018.89 1018.40 1018.45 1018.25 1018.11 1017.92 1018.25 1018.71 1019.29 1019.52 1019.16 1018.97 1018.73 1018.08 1017.70 1017.74 1018.15 1018.57 1018.51 1018.42 1018.08 1018.10 1018.45 1018.69 1018.97 1019.26 1019.41 1019.60 1019.81 1020.07 1020.17 1020.47 1020.76 1021.08 1021.29 1021.20 1021.09 1021.06 1021.02 1020.93 1020.95 1020.84 1020.96
1018.73 1018.06 1017.99 1018.23 1018.34 1018.30 1018.18 1018.24 1018.67 1019.65 1019.85 1019.38 1019.37 1018.92 1018.38 1017.75 1017.71 1017.86 1018.17 1018.21 1018.24 1018.38 1018.61 1018.81 1019.05 1019.26 1019.63 1019.85 1020.00 1020.05 1020.20 1020.39 1020.62 1020.84 1020.82 1020.93 1021.04 1021.07 1021.10 1020.95 1020.74 1020.87 1020.88 1020.98
1018.35 1018.13 1018.14 1018.24 1018.51 1018.54 1018.32 1018.23 1018.65 1019.15 1020.15 1020.18 1019.82 1019.43 1018.58 1018.32 1018.02 1017.86 1018.31 1018.22 1018.34 1018.88 1019.46 1020.00 1020.19 1020.43 1020.37 1020.33 1020.39 1020.13 1020.18 1020.41 1020.82 1020.94 1021.10 1021.20 1021.33 1021.30 1021.48 1021.38 1021.22 1021.12 1021.21 1021.13
1018.29 1018.09 1018.12 1018.21 1018.49 1018.52 1018.76 1018.67 1019.13 1019.69 1020.19 1020.62 1020.50 1020.38 1019.55 1019.30 1018.72 1019.37 1018.98 1019.05 1019.34 1019.65 1020.08 1020.83 1021.06 1021.22 1021.48 1021.63 1021.43 1021.16 1021.16 1021.30 1021.41 1021.35 1021.46 1021.86 1022.08 1022.26 1022.15 1021.98 1021.72 1021.57 1021.68 1021.48
1018.25 1017.96 1018.13 1018.12 1017.81 1018.39 1019.04 1019.16 1019.80 1020.38 1020.95 1021.07 1021.17 1021.17 1019.54 1019.55 1019.51 1019.79 1019.61 1020.30 1020.29 1020.46 1020.57 1021.45 1021.94 1021.91 1022.23 1022.20 1022.30 1022.20 1022.18 1022.15 1022.22 1022.08 1022.17 1022.38 1022.72 1022.77 1022.50 1022.24 1021.91 1021.87 1021.76 1021.62
1018.71 1018.46 1018.35 1018.11 1018.12 1018.57 1019.49 1020.09 1020.78 1021.32 1021.72 1021.89 1021.09 1021.13 1020.08 1019.45 1019.57 1020.09 1020.26 1021.20 1021.60 1021.17 1021.54 1022.26 1022.55 1022.56 1022.64 1022.64 1022.65 1022.68 1022.90 1023.06 1023.00 1022.91 1022.83 1022.93 1023.14 1023.27 1023.05 1022.64 1022.36 1022.10 1021.81 1021.56
1019.37 1019.12 1018.81 1018.51 1018.83 1019.36 1019.54 1020.36 1021.50 1022.36 1022.47 1021.76 1021.35 1021.47 1020.12 1019.43 1018.90 1019.71 1021.19 1021.61 1022.42 1021.43 1021.72 1023.51 1022.98 1024.16 1023.51 1023.14 1023.35 1023.07 1022.87 1023.45 1023.68 1023.61 1023.43 1023.31 1023.36 1023.25 1023.34 1023.13 1023.01 1022.62 1022.10 1021.68
1019.46 1020.08 1019.25 1018.93 1018.61 1018.60 1019.59 1020.03 1020.64 1021.32 1021.91 1022.00 1021.71 1020.96 1019.73 1019.43 1019.09 1019.24 1020.32 1021.80 1023.00 1022.73 1023.63 1024.24 1024.25 1024.87 1024.29 1024.27 1023.97 1023.87 1023.73 1024.19 1024.73 1024.35 1024.15 1023.99 1023.78 1023.79 1023.74 1023.64 1023.43 1023.20 1022.58 1021.95
1019.74 1019.99 1019.66 1019.54 1018.84 1018.83 1019.65 1020.18 1020.54 1021.12 1022.01 1021.78 1021.75 1021.05 1019.78 1019.83 1019.72 1019.91 1020.99 1021.98 1023.04 1023.67 1024.67 1024.98 1024.99 1025.09 1025.41 1025.43 1025.33 1025.20 1024.83 1024.94 1024.89 1024.81 1024.50 1024.30 1023.96 1024.03 1023.98 1023.79 1023.49 1023.07 1022.40 1022.00
1020.16 1020.37 1020.43 1019.79 1019.27 1019.24 1019.34 1020.00 1021.03 1021.57 1022.03 1022.04 1021.70 1020.94 1019.87 1020.35 1020.51 1020.83 1021.67 1022.39 1023.47 1024.41 1024.86 1024.98 1025.30 1025.55 1025.84 1025.76 1025.45 1025.64 1025.64 1025.66 1025.46 1025.24 1025.16 1025.01 1024.70 1024.37 1024.13 1023.88 1023.46 1022.93 1022.68 1022.14
1020.01 1020.58 1021.40 1020.74 1020.13 1019.59 1019.71 1019.86 1020.16 1020.47 1021.06 1021.16 1021.29 1020.61 1019.93 1020.33 1020.95 1021.30 1021.99 1023.15 1023.68 1024.35 1024.93 1025.62 1026.10 1026.49 1026.66 1026.42 1026.27 1026.25 1026.08 1026.08 1025.97 1026.11 1026.00 1025.63 1025.33 1024.83 1024.46 1024.37 1024.17 1023.83 1022.95 1022.37
1020.42 1021.20 1021.49 1021.29 1020.71 1019.82 1019.53 1019.33 1019.31 1019.76 1020.79 1020.89 1020.70 1020.75 1020.26 1020.41 1021.34 1022.14 1023.26 1023.97 1024.52 1025.17 1025.94 1026.34 1026.67 1027.07 1027.02 1026.88 1026.73 1026.74 1026.76 1026.80 1027.02 1026.83 1026.65 1026.44 1026.03 1025.60 1025.28 1024.70 1024.32 1023.69 1023.15 1022.69
1020.47 1021.33 1021.65 1021.53 1021.25 1020.21 1019.95 1019.25 1019.25 1019.49 1019.99 1020.70 1020.99 1021.42 1021.12 1021.32 1022.24 1023.37 1023.87 1024.69 1025.37 1026.07 1026.51 1026.89 1026.97 1027.24 1027.51 1027.55 1027.69 1027.81 1027.96 1028.26 1028.11 1027.68 1027.16 1026.88 1026.43 1025.89 1025.27 1024.59 1024.47 1024.02 1023.76 1022.93
1020.74 1021.56 1021.55 1021.07 1020.37 1019.64 1020.01 1019.57 1019.44 1019.46 1020.38 1020.79 1020.84 1021.76 1022.43 1022.85 1023.40 1024.55 1025.02 1025.21 1025.94 1026.66 1027.11 1027.41 1027.55 1027.92 1028.38 1028.49 1028.67 1028.75 1028.77 1028.61 1028.38 1027.99 1027.48 1027.13 1026.76 1026.26 1025.87 1025.62 1025.39 1024.76 1023.72 1023.02
1021.47 1021.73 1021.83 1021.72 1021.05 1020.04 1019.51 1019.44 1019.72 1019.97 1020.21 1020.73 1021.51 1021.91 1022.50 1023.62 1024.26 1025.04 1025.42 1025.83 1026.40 1027.00 1027.54 1028.08 1028.50 1028.99 1029.41 1029.47 1029.36 1029.12 1028.74 1028.56 1028.36 1027.85 1027.32 1027.25 1026.97 1026.77 1026.47 1025.75 1025.02 1024.21 1023.85 1023.35
1022.19 1022.48 1022.45 1022.33 1021.55 1020.75 1020.27 1019.95 1019.80 1020.36 1020.76 1021.13 1021.52 1022.66 1023.05 1024.15 1024.68 1025.45 1025.87 1026.26 1027.17 1027.66 1028.14 1028.70 1029.15 1029.75 1029.90 1029.63 1029.38 1029.20 1029.01 1028.61 1028.44 1028.19 1027.60 1027.32 1027.08 1026.96 1026.51 1025.71 1025.09 1024.39 1023.97 1023.33
1022.95 1023.27 1023.63 1023.64 1022.77 1021.69 1021.41 1020.29 1020.10 1020.34 1020.49 1021.14 1021.76 1022.60 1023.78 1024.73 1025.36 1026.05 1026.57 1027.14 1027.81 1028.29 1028.75 1029.21 1029.81 1029.96 1029.94 1029.66 1029.54 1029.21 1028.91 1028.61 1028.26 1028.10 1027.97 1027.85 1027.64 1027.44 1026.56 1025.98 1025.31 1024.67 1024.19 1023.48
1023.63 1024.09 1024.33 1024.64 1023.80 1023.08 1021.17 1020.53 1020.12 1020.53 1021.23 1021.35 1021.67 1022.55 1023.59 1024.68 1025.72 1026.36 1026.87 1027.39 1028.08 1028.62 1028.97 1029.39 1029.81 1029.81 1029.68 1029.47 1029.23 1029.24 1029.17 1029.32 1029.15 1028.90 1028.80 1029.06 1028.77 1027.82 1026.85 1026.53 1025.79 1025.19 1024.59 1023.76
1024.26 1024.65 1025.61 1025.83 1025.11 1023.81 1022.01 1021.24 1020.88 1020.60 1022.06 1022.14 1022.49 1023.50 1024.19 1025.24 1026.20 1027.03 1027.30 1027.61 1028.26 1028.86 1029.37 1029.50 1029.51 1029.52 1029.73 1030.03 1030.16 1029.83 1029.89 1030.23 1030.21 1030.14 1029.95 1029.58 1028.81 1028.09 1027.60 1027.21 1026.52 1025.61 1025.21 1024.32
1025.78 1025.53 1026.01 1026.75 1025.81 1024.16 1022.24 1021.27 1020.89 1020.67 1021.95 1022.12 1022.64 1023.54 1024.51 1025.79 1026.63 1027.14 1027.79 1028.50 1028.93 1029.11 1029.44 1029.91 1030.22 1030.70 1030.89 1031.12 1030.77 1031.03 1031.18 1031.15 1031.20 1030.90 1030.63 1029.80 1029.07 1028.60 1028.23 1027.51 1026.83 1026.49 1025.67 1024.09
1026.95 1027.09 1027.34 1027.36 1025.93 1023.83 1022.41 1021.73 1021.54 1021.88 1022.33 1022.21 1023.10 1023.92 1025.10 1026.08 1026.65 1027.30 1028.18 1028.85 1029.24 1029.64 1030.11 1030.73 1031.23 1031.67 1031.91 1031.82 1031.94 1031.67 1031.77 1031.82 1031.90 1031.51 1030.54 1029.93 1029.62 1029.08 1028.82 1027.88 1027.44 1026.74 1025.56 1024.53
1027.52 1027.54 1027.97 1028.21 1026.22 1024.16 1022.55 1022.16 1022.29 1022.40 1022.59 1023.02 1024.04 1024.87 1025.82 1026.66 1027.42 1028.11 1028.92 1029.65 1030.22 1030.74 1031.27 1031.39 1031.71 1031.95 1032.23 1032.32 1032.26 1032.43 1032.45 1032.52 1032.34 1031.40 1030.56 1030.42 1030.03 1029.43 1029.06 1028.40 1027.61 1026.80 1025.87 1024.49
1027.63 1026.50 1026.27 1026.25 1024.70 1023.52 1023.04 1022.84 1022.58 1022.76 1023.05 1024.06 1024.60 1025.43 1026.11 1027.10 1027.90 1028.64 1029.41 1029.95 1030.55 1030.96 1031.33 1031.89 1032.12 1032.58 1033.14 1033.12 1033.17 1033.24 1033.15 1032.80 1031.96 1031.66 1031.47 1030.99 1030.43 1030.02 1029.50 1028.61 1027.82 1026.97 1025.78 1024.76
1026.73 1026.06 1025.98 1025.51 1024.02 1023.61 1023.47 1023.30 1023.38 1023.59 1024.20 1024.87 1025.41 1026.06 1026.69 1027.46 1028.25 1029.01 1029.84 1030.44 1031.12 1031.72 1032.11 1032.49 1033.45 1033.65 1033.52 1033.72 1033.92 1033.92 1033.51 1032.99 1032.61 1032.40 1031.92 1031.45 1030.89 1030.27 1029.63 1029.01 1028.18 1027.11 1026.10 1025.22
1026.19 1025.80 1025.37 1025.11 1024.05 1023.76 1023.53 1023.72 1024.02 1024.53 1025.04 1025.67 1026.25 1026.72 1027.34 1028.08 1028.90 1029.62 1030.48 1031.11 1031.71 1032.55 1033.06 1033.84 1033.92 1033.98 1034.17 1034.28 1034.07 1033.72 1033.41 1033.15 1033.10 1032.95 1032.37 1031.78 1031.33 1030.88 1030.10 1029.19 1028.26 1027.23 1026.36 1025.45
1025.00 1024.24 1024.29 1023.89 1022.81 1022.84 1023.01 1023.45 1024.32 1025.08 1025.72 1026.31 1026.85 1027.78 1028.47 1028.94 1029.66 1030.43 1031.39 1032.23 1032.86 1033.38 1033.72 1034.12 1034.48 1034.80 1034.78 1034.36 1033.84 1033.62 1033.80 1034.10 1034.03 1033.49 1032.86 1032.33 1031.74 1030.93 1030.01 1028.96 1027.74 1026.98 1025.82 1024.85
Thickness
5579 5585 5594 5598 5608 5611 5620 5624 5627 5619 5625 5632 5628 5634 5652 5662 5672 5670 5670 5674 5679 5688 5690 5690 5690 5689 5688 5688 5686 5685 5683 5681 5680 5677 5674 5672 5673 5674 5671 5669 5669 5668 5668 5663
5571 5584 5595 5596 5598 5602 5610 5618 5616 5611 5617 5628 5623 5633 5642 5654 5664 5665 5668 5671 5676 5679 5682 5682 5682 5682 5679 5678 5679 5679 5677 5675 5672 5669 5669 5667 5667 5668 5665 5663 5664 5661 5660 5657
5569 5580 5587 5589 5588 5593 5600 5610 5613 5619 5609 5613 5620 5626 5632 5646 5653 5661 5660 5665 5668 5668 5666 5661 5662 5663 5664 5666 5668 5672 5671 5669 5664 5662 5660 5659 5659 5659 5657 5655 5654 5652 5649 5648
5562 5572 5577 5582 5583 5592 5589 5600 5604 5602 5608 5604 5606 5600 5617 5624 5635 5633 5641 5644 5648 5652 5651 5649 5649 5650 5650 5648 5651 5654 5655 5654 5652 5652 5651 5648 5646 5644 5644 5644 5642 5640 5635 5635
5557 5564 5569 5575 5588 5590 5586 5591 5593 5592 5591 5590 5589 5591 5609 5614 5619 5622 5629 5627 5633 5638 5641 5637 5635 5637 5635 5636 5636 5637 5638 5638 5638 5640 5638 5635 5631 5630 5630 5632 5632 5629 5625 5622
5544 5554 5562 5573 5579 5581 5576 5577 5573 5571 5574 5575 5584 5588 5597 5609 5612 5614 5616 5614 5616 5624 5625 5621 5621 5622 5624 5623 5623 5626 5624 5623 5622 5622 5622 5620 5617 5615 5616 5618 5617 5616 5615 5612
5528 5539 5551 5561 5562 5563 5569 5571 5560 5559 5561 5575 5574 5576 5591 5604 5614 5613 5604 5602 5601 5616 5616 5603 5609 5599 5606 5610 5609 5613 5614 5610 5607 5605 5606 5607 5605 5605 5604 5604 5601 5601 5602 5601
5528 5527 5537 5548 5558 5567 5565 5565 5564 5562 5563 5560 5565 5570 5588 5597 5606 5612 5606 5591 5587 5595 5591 5589 5587 5581 5587 5589 5595 5597 5598 5593 5587 5589 5591 5592 5593 5590 5588 5587 5586 5584 5586 5587
5515 5524 5525 5535 5552 5560 5554 5556 5558 5554 5519 5549 5557 5572 5589 5589 5591 5595 5591 5587 5582 5580 5573 5571 5571 5572 5571 5569 5571 5573 5576 5575 5574 5574 5576 5576 5579 5575 5574 5573 5573 5573 5575 5572
5500 5516 5511 5530 5543 5545 5552 5553 5537 5533 5538 5531 5553 5565 5577 5575 5579 5584 5581 5581 5575 5565 5563 5564 5563 5560 5557 5558 5561 5558 5558 5558 5559 5559 5558 5558 5560 5561 5561 5559 5560 5560 5557 5558
5501 5502 5501 5513 5521 5540 5540 5532 5547 5549 5543 5547 5547 5562 5573 5572 5572 5576 5576 5567 5562 5557 5553 5548 5544 5541 5540 5542 5542 5544 5545 5543 5542 5540 5541 5542 5543 5545 5545 5543 5541 5540 5544 5543
5495 5492 5499 5503 5514 5531 5537 5547 5551 5548 5544 5540 5550 5556 5562 5566 5561 5556 5552 5548 5544 5541 5537 5534 5532 5529 5530 5531 5532 5531 5530 5529 5526 5526 5525 5525 5527 5527 5526 5527 5527 5528 5529 5526
5493 5482 5495 5500 5507 5521 5527 5544 5545 5543 5540 5531 5536 5539 5548 5546 5544 5537 5536 5533 5529 5527 5524 5523 5523 5521 5518 5518 5516 5515 5512 5507 5506 5508 5511 5512 5513 5514 5517 5519 5514 5511 5507 5507
5489 5465 5485 5512 5519 5520 5520 5534 5537 5542 5526 5530 5537 5530 5534 5528 5526 5520 5520 5521 5517 5513 5511 5511 5511 5508 5504 5502 5499 5497 5495 5494 5495 5497 5499 5500 5500 5501 5499 5494 5488 5487 5489 5490
5478 5460 5478 5482 5489 5514 5530 5531 5527 5532 5535 5534 5531 5534 5530 5520 5516 5510 5508 5508 5507 5505 5501 5497 5494 5491 5486 5485 5484 5485 5487 5488 5488 5488 5488 5484 5482 5478 5474 5475 5476 5478 5476 5476
5459 5469 5468 5471 5482 5504 5512 5514 5520 5520 5514 5516 5522 5516 5512 5503 5503 5501 5500 5499 5494 5490 5487 5485 5482 5477 5475 5476 5477 5477 5476 5477 5475 5472 5473 5471 5468 5464 5462 5464 5465 5465 5464 5463
5458 5454 5443 5449 5464 5489 5488 5497 5505 5512 5518 5516 5516 5519 5496 5492 5492 5487 5486 5486 5482 5479 5476 5473 5468 5467 5467 5467 5467 5467 5467 5466 5465 5462 5458 5456 5454 5450 5451 5451 5451 5450 5449 5450
5448 5441 5436 5449 5453 5481 5496 5486 5504 5504 5494 5501 5501 5499 5494 5486 5478 5476 5478 5476 5473 5470 5469 5465 5462 5461 5461 5461 5461 5457 5454 5450 5447 5444 5440 5434 5432 5434 5436 5433 5434 5432 5431 5431
5440 5441 5429 5450 5422 5455 5483 5485 5489 5502 5487 5487 5487 5480 5478 5474 5469 5469 5472 5470 5465 5461 5458 5458 5456 5455 5451 5445 5441 5440 5436 5429 5424 5421 5418 5417 5417 5418 5416 5413 5411 5412 5409 5408
5424 5428 5437 5391 5432 5440 5481 5485 5488 5500 5487 5482 5483 5478 5473 5465 5468 5466 5461 5455 5452 5451 5448 5443 5439 5434 5430 5425 5424 5419 5414 5409 5405 5404 5401 5402 5401 5400 5396 5395 5392 5386 5383 5390
5382 5387 5414 5399 5427 5443 5457 5471 5477 5472 5493 5477 5478 5475 5469 5466 5466 5456 5448 5444 5442 5438 5435 5426 5421 5416 5411 5409 5403 5403 5398 5393 5389 5388 5390 5387 5382 5380 5374 5374 5367 5363 5364 5363
5401 5394 5382 5350 5396 5458 5457 5471 5479 5477 5468 5468 5463 5462 5458 5450 5444 5440 5435 5429 5425 5420 5415 5412 5405 5402 5397 5393 5391 5387 5384 5379 5374 5375 5375 5369 5364 5360 5354 5350 5345 5340 5337 5338
5387 5420 5416 5418 5430 5449 5452 5459 5461 5461 5462 5459 5457 5454 5449 5443 5438 5431 5424 5418 5413 5407 5403 5395 5390 5385 5379 5378 5375 5371 5367 5363 5364 5359 5354 5349 5343 5337 5330 5327 5323 5316 5312 5309
5406 5410 5408 5419 5440 5437 5442 5449 5451 5453 5451 5446 5445 5440 5436 5431 5423 5418 5410 5406 5398 5391 5386 5381 5372 5370 5370 5364 5359 5354 5353 5351 5346 5339 5335 5329 5323 5317 5310 5302 5295 5290 5283 5276
5395 5401 5393 5400 5427 5432 5436 5438 5439 5435 5434 5431 5429 5428 5423 5417 5412 5405 5398 5393 5389 5381 5375 5367 5365 5363 5358 5352 5349 5345 5341 5336 5328 5320 5314 5309 5301 5292 5286 5279 5271 5264 5252 5243
5403 5410 5413 5410 5431 5435 5439 5431 5427 5425 5425 5422 5419 5412 5407 5407 5403 5396 5387 5381 5374 5369 5365 5360 5355 5349 5345 5342 5339 5333 5325 5315 5305 5299 5294 5285 5278 5271 5265 5262 5258 5241 5233 5223